This is the latest recevied weather packets stored in our database for station/object KC5EZZ-2. If no packets are shown the sender has not sent any weather packets the latest 10 day(s).
| Time | Temp. | Humidity | Pressure | Rain* | Wind** | Luminosity | Snow |
|---|---|---|---|---|---|---|---|
| 1787668179 | 29.44° C | - | - | 0 mm | 3.58 m/s, 212° | - | - |
| 1787667873 | 29.44° C | - | - | 0 mm | 2.24 m/s, 190° | - | - |
| 1787667573 | 28.89° C | - | - | 0 mm | 2.24 m/s, 212° | - | - |
| 1787667273 | 28.33° C | - | - | 0 mm | 2.68 m/s, 246° | - | - |
| 1787666971 | 28.33° C | - | - | 0 mm | 2.68 m/s, 231° | - | - |
| 1787666671 | 29.44° C | - | - | 0 mm | 2.24 m/s, 197° | - | - |
| 1787666402 | 28.89° C | - | - | 0 mm | 2.68 m/s, 80° | - | - |
| 1787666371 | 28.89° C | - | - | 0 mm | 2.68 m/s, 80° | - | - |
| 1787666069 | 28.89° C | - | - | 0 mm | 2.68 m/s, 236° | - | - |
| 1787665769 | 29.44° C | - | - | 0 mm | 2.24 m/s, 165° | - | - |
| 1787665516 | 28.89° C | - | - | 0 mm | 2.24 m/s, 193° | - | - |
| 1787665469 | 28.89° C | - | - | 0 mm | 2.24 m/s, 193° | - | - |
| 1787665194 | 28.89° C | - | - | 0 mm | 2.24 m/s, 224° | - | - |
| 1787665167 | 28.89° C | - | - | 0 mm | 0.89 m/s, 200° | - | - |
| 1787664867 | 28.89° C | - | - | 0 mm | 2.24 m/s, 224° | - | - |
| 1787664568 | 28.33° C | - | - | 0 mm | 1.34 m/s, 191° | - | - |
| 1787664265 | 27.78° C | - | - | 0 mm | 0.89 m/s, 172° | - | - |
| 1787663965 | 28.33° C | - | - | 0 mm | 0 m/s | - | - |
| 1787663666 | 27.78° C | - | - | 0 mm | 0.89 m/s, 204° | - | - |
| 1787663363 | 28.33° C | - | - | 0 mm | 0 m/s | - | - |
| 1787663064 | 27.78° C | - | - | 0 mm | 0 m/s | - | - |
| 1787662764 | 27.78° C | - | - | 0 mm | 0 m/s | - | - |
| 1787662462 | 26.67° C | - | - | 0 mm | 0 m/s | - | - |
| 1787662162 | 26.67° C | - | - | 0 mm | 0.89 m/s, 156° | - | - |
| 1787661862 | 26.11° C | - | - | 0 mm | 0.89 m/s, 156° | - | - |
* Rain latest hour (hover to see other rain measurements)
** Current wind speed in m/s (hover to see current wind gust speed)